Regional Weather Roundup
Issued by NWS

Home | Current Version | Previous Version | Graphics & Text | Print | Product List | Glossary On
Versions: 1 2 3 4 5 6 7 8 9 10 11 12 13 14 15 16 17 18 19 20 21 22 23 24 25 26 27 28 29 30 31 32 33 34 35 36 37 38 39 40 41 42 43 44 45 46 47 48 49 50
000
ASUS43 KLOT 270700
RWRIL

ILLINOIS REGIONAL WEATHER ROUNDUP
NATIONAL WEATHER SERVICE CHICAGO/ROMEOVILLE IL
100 AM CST SAT DEC 27 2014

NOTE: "FAIR" INDICATES FEW OR NO CLOUDS BELOW 12,000 FEET WITH NO
SIGNIFICANT WEATHER AND/OR OBSTRUCTIONS TO VISIBILITY.

* THESE STATIONS ARE NOT UNDER NWS QUALITY CONTROL. THEY ALSO MAY NOT
  REPORT WEATHER SUCH AS PRECIPITATION OR FOG.

ILZ001-002-007-009-015-016-024-270800-
NORTHWEST ILLINOIS

CITY           SKY/WX    TMP DP  RH WIND       PRES   REMARKS
MOLINE         CLOUDY    48  43  82 S9        29.93S
STERLING*      CLOUDY    46  43  87 S6        29.95F
$$

ILZ003-004-008-010-011-017-018-270800-
NORTH CENTRAL ILLINOIS

CITY           SKY/WX    TMP DP  RH WIND       PRES   REMARKS
ROCKFORD       CLOUDY    45  41  86 SE7       29.98F
FREEPORT*      CLOUDY    42  39  91 SE6       29.96F
$$

ILZ005-006-012>014-019>023-270800-
NORTHEAST ILLINOIS

CITY           SKY/WX    TMP DP  RH WIND       PRES   REMARKS
CHICAGO-OHARE  CLOUDY    46  42  86 S9        30.00F
CHICAGO-MIDWAY CLOUDY    47  43  86 SW9       30.01F
AURORA         CLOUDY    44  40  85 S8        29.99F
WAUKEGAN       CLOUDY    46  41  82 S6        29.99F
DUPAGE AIRPORT CLOUDY    45  41  86 S10       29.98F
WHEELING       CLOUDY    46  42  86 S10       30.01F
NORTHERLY ISL    N/A     47  41  80 S9          N/A
$$

LMZ740>746-270800-
SOUTHERN LAKE MICHIGAN

STATION/POSITION SKY/WX   TEMP    WIND        PRES    VSBY  WAVE
                          AIR SEA DIR/SP/G                  HT/PER
                          (F)     (DEG/KT/KT) (MB)    (MI)  (FT/S)
WAUKEGAN HARBOR            41     160/ 13/ 15   N/A
HARRISON CRIB              46     180/ 14/ 16   N/A
BURNHAM HARBOR             47     200/  6/ 11   N/A
CALUMET HARBOR             47     190/  8/ 11 1015.6F
MICHIGAN CITY              47     160/ 14/ 18   N/A
$$

ILZ025>027-034>036-040-047-049-050-058-095>099-270800-
WEST-CENTRAL ILLINOIS

CITY           SKY/WX    TMP DP  RH WIND       PRES   REMARKS
QUINCY         CLOUDY    50  46  86 S13       29.97F
MACOMB*        CLOUDY    49  46  89 S10       29.99S
$$

ILZ028>032-037-038-041>044-048-051>054-059>061-270800-
CENTRAL ILLINOIS

CITY           SKY/WX    TMP DP  RH WIND       PRES   REMARKS
DECATUR        LGT RAIN  47  43  86 S13       30.06F
PEORIA         CLOUDY    49  43  80 S14       29.99S
LINCOLN*       DRIZZLE   47  45  93 S13       30.02F
SPRINGFIELD    LGT RAIN  48  45  89 S17       30.04R
TAYLORVILLE    NOT AVBL
$$

ILZ033-039-045-046-055>057-062-063-270800-
EAST-CENTRAL ILLINOIS

CITY           SKY/WX    TMP DP  RH WIND       PRES   REMARKS
CHAMPAIGN      LGT RAIN  47  43  86 S9        30.06R
DANVILLE*      LGT RAIN  47  41  79 SW14      30.06R
MATTOON        LGT RAIN  47  40  76 S10G21    30.07R
$$

ILZ079-100>102-270800-
SOUTHWEST ILLINOIS

CITY           SKY/WX    TMP DP  RH WIND       PRES   REMARKS
ALTON          LGT RAIN  46  45  96 S8        30.06F
BELLEVILLE     DRIZZLE   46  46  99 S8        30.07F
CAHOKIA*       CLOUDY    48  46  93 SE5       30.06F
SPARTA*        DRIZZLE   46  43  92 S10       30.10S
$$

ILZ064>066-069>071-074>076-080>082-084>086-088>090-092>094-270800-
SOUTH-CENTRAL ILLINOIS

CITY           SKY/WX    TMP DP  RH WIND       PRES   REMARKS
CARBONDALE     RAIN      48  42  80 S8        30.11F
MT. VERNON     CLOUDY    48  39  71 S12       30.11S
SALEM*         RAIN      48  44  84 S7        30.11R
$$

ILZ067-068-072-073-078-083-087-091-270800-
SOUTHEAST ILLINOIS

CITY           SKY/WX    TMP DP  RH WIND       PRES   REMARKS
LAWRENCEVILLE  CLOUDY    45  39  79 S9        30.12F
ROBINSON*      CLOUDY    45  39  81 S7        30.13S
CARMI*         CLOUDY    49  43  79 S12       30.13S
$$

ABBREVIATIONS USED IN REMARKS
   TC - TEMPERATURE IN CELSIUS
  WCI - WIND CHILL INDEX
   HX - HEAT INDEX
  VSB - VISIBILITY
$$



USA.gov is the U.S. government's official web portal to all federal, state and local government web resources and services.